Weather History for Aurora, OR

Change the Weather History Date:

Sunday, January 20, 2013

  Actual Average Record
Temperature  
Mean Temperature 30 °F -  
Max Temperature 32 °F - 59 °F (2005)
Min Temperature 28 °F - 26 °F (2009)
Degree Days  
Heating Degree Days 35    
Month to date heating degree days 593  
Since 1 July heating degree days 2252  
Cooling Degree Days 0    
Month to date cooling degree days 0  
Year to date cooling degree days 0  
Moisture  
Dew Point 29 °F    
Average Humidity 93    
Maximum Humidity 100    
Minimum Humidity 85    
Precipitation  
Precipitation 0.00 in - 1.45 in (1953)
Month to date precipitation 0.54  
Year to date precipitation 0.54  
Sea Level Pressure  
Sea Level Pressure 30.33 in    
Wind  
Wind Speed 1 mph (SSE)    
Max Wind Speed 7 mph    
Max Gust Speed 8 mph    
Visibility 3 miles    
Events Fog    
T = Trace of Precipitation, MM = Missing Value Source: NWS Daily Summary

Daily Weather History Graph

Daily Weather History Graph

Search for Another Location

Airport:

Trip Planner

Search our weather history database for the weather conditions in past years. The results will help you decide how hot, cold, wet, or windy it might be!

Date:

Astronomy

Jan. 20, 2013 Rise Set
Actual Time 7:42 AM PST 5:02 PM PST
Civil Twilight 7:10 AM PST 5:34 PM PST
Nautical Twilight 6:34 AM PST 6:10 PM PST
Astronomical Twilight 5:59 AM PST 6:45 PM PST
Moon 12:07 PM PST (1/20) 2:19 AM PST (1/20)
Length of Visible Light 10h 24m
Length of Day
9h 19m
Waxing Gibbous, 67% of the Moon is Illuminated
Jan 20
Waxing Gibbous
Jan 26
Full
Feb 3
Last Quarter
Feb 9
New
Feb 17
First Quarter

Hourly Weather History & Observations

Time (PST) Temp. Windchill Dew Point Humidity Pressure Visibility Wind Dir Wind Speed Gust Speed Precip Events Conditions
12:53 AM 30.0 °F - 28.9 °F 96% 30.37 in 0.5 mi Calm Calm - N/A Fog Light Freezing Fog
1:03 AM 30.2 °F - 28.4 °F 93% 30.36 in 0.2 mi Calm Calm - N/A Fog Light Freezing Fog
1:14 AM 30.2 °F - 28.4 °F 93% 30.36 in 0.5 mi Calm Calm - N/A Fog Light Freezing Fog
1:53 AM 28.9 °F - 28.9 °F 100% 30.38 in 0.5 mi Calm Calm - N/A Fog Light Freezing Fog
2:53 AM 28.9 °F - 28.0 °F 96% 30.38 in 0.8 mi Calm Calm - N/A   Mist
3:25 AM 28.4 °F - 28.4 °F 100% 30.38 in 1.0 mi Calm Calm - N/A   Mist
3:53 AM 28.9 °F - 28.0 °F 96% 30.38 in 1.0 mi Calm Calm - N/A   Mist
4:00 AM 28.4 °F - 28.4 °F 100% 30.37 in 0.8 mi Calm Calm - N/A   Mist
4:33 AM 28.4 °F - 28.4 °F 100% 30.37 in 1.0 mi Calm Calm - N/A   Mist
4:53 AM 28.9 °F - 28.0 °F 96% 30.37 in 0.8 mi Calm Calm - N/A   Mist
5:13 AM 28.4 °F 24.6 °F 26.6 °F 93% 30.36 in 2.0 mi ESE 3.5 mph - N/A   Overcast
5:36 AM 28.4 °F - 28.4 °F 100% 30.35 in 4.0 mi Calm Calm - N/A   Overcast
5:53 AM 28.0 °F - 27.0 °F 96% 30.36 in 2.5 mi Calm Calm - N/A   Overcast
6:06 AM 28.4 °F - 28.4 °F 100% 30.35 in 1.0 mi Calm Calm - N/A   Overcast
6:26 AM 28.4 °F - 28.4 °F 100% 30.35 in 0.8 mi Calm Calm - N/A   Mist
6:48 AM 28.4 °F - 28.4 °F 100% 30.35 in 1.0 mi Calm Calm - N/A   Mist
6:53 AM 28.9 °F - 28.0 °F 96% 30.36 in 1.0 mi Calm Calm - N/A   Mist
7:02 AM 28.4 °F - 28.4 °F 100% 30.35 in 0.5 mi Calm Calm - N/A Fog Light Freezing Fog
7:53 AM 28.0 °F - 27.0 °F 96% 30.37 in 1.0 mi Calm Calm - N/A   Mist
8:07 AM 28.4 °F - 28.4 °F 100% 30.36 in 0.8 mi Calm Calm - N/A   Mist
8:25 AM 28.4 °F - 26.6 °F 93% 30.37 in 1.2 mi Calm Calm - N/A   Overcast
8:53 AM 28.0 °F - 27.0 °F 96% 30.38 in 1.2 mi Calm Calm - N/A   Overcast
9:17 AM 28.4 °F - 26.6 °F 93% 30.38 in 0.8 mi Calm Calm - N/A   Overcast
9:49 AM 28.4 °F - 28.4 °F 100% 30.38 in 1.0 mi Calm Calm - N/A   Overcast
9:53 AM 28.0 °F - 28.0 °F 100% 30.39 in 1.2 mi Calm Calm - N/A   Overcast
10:26 AM 28.4 °F - 28.4 °F 100% 30.38 in 3.0 mi Calm Calm - N/A   Overcast
10:53 AM 28.9 °F - 28.0 °F 96% 30.39 in 3.0 mi Calm Calm - N/A   Overcast
11:53 AM 30.0 °F - 27.0 °F 88% 30.37 in 6.0 mi Calm Calm - N/A   Mostly Cloudy
12:06 PM 30.2 °F 26.7 °F 28.4 °F 93% 30.35 in 7.0 mi SE 3.5 mph - N/A   Scattered Clouds
12:30 PM 30.2 °F 26.7 °F 28.4 °F 93% 30.34 in 6.0 mi SSE 3.5 mph - N/A   Mostly Cloudy
12:53 PM 30.9 °F 27.5 °F 28.0 °F 89% 30.33 in 6.0 mi SSE 3.5 mph - N/A   Mostly Cloudy
1:53 PM 32.0 °F 26.4 °F 30.0 °F 92% 30.31 in 7.0 mi South 5.8 mph - N/A   Mostly Cloudy
2:05 PM 32.0 °F 27.5 °F 30.2 °F 93% 30.30 in 7.0 mi SSE 4.6 mph - N/A   Partly Cloudy
2:53 PM 32.0 °F 26.4 °F 30.0 °F 92% 30.30 in 7.0 mi SSE 5.8 mph - N/A   Scattered Clouds
3:00 PM 32.0 °F 28.7 °F 30.2 °F 93% 30.29 in 6.0 mi SSE 3.5 mph - N/A   Mostly Cloudy
3:53 PM 30.9 °F 26.2 °F 30.0 °F 96% 30.29 in 5.0 mi SSE 4.6 mph - N/A   Overcast
4:02 PM 30.2 °F 25.4 °F 30.2 °F 100% 30.28 in 5.0 mi SSE 4.6 mph - N/A   Overcast
4:53 PM 30.9 °F 27.5 °F 30.0 °F 96% 30.29 in 3.0 mi SSE 3.5 mph - N/A   Overcast
5:04 PM 30.2 °F 26.7 °F 30.2 °F 100% 30.27 in 1.8 mi South 3.5 mph - N/A   Overcast
5:32 PM 30.2 °F - 30.2 °F 100% 30.27 in 2.5 mi Calm Calm - N/A   Overcast
5:49 PM 30.2 °F - 30.2 °F 100% 30.27 in 1.2 mi Calm Calm - N/A   Overcast
5:53 PM 30.0 °F - 30.0 °F 100% 30.28 in 1.0 mi Calm Calm - N/A   Overcast
6:53 PM 30.0 °F - 30.0 °F 100% 30.28 in 1.0 mi Calm Calm - N/A   Mist
7:01 PM 30.2 °F - 30.2 °F 100% 30.27 in 0.8 mi Calm Calm - N/A   Mist
7:29 PM 30.2 °F - 30.2 °F 100% 30.28 in 1.0 mi Calm Calm - N/A   Mist
7:53 PM 30.0 °F - 30.0 °F 100% 30.29 in 1.2 mi Calm Calm - N/A   Overcast
8:31 PM 28.4 °F - 28.4 °F 100% 30.29 in 2.5 mi Calm Calm - N/A   Overcast
8:42 PM 28.4 °F - 28.4 °F 100% 30.28 in 4.0 mi Calm Calm - N/A   Overcast
8:53 PM 28.9 °F - 28.9 °F 100% 30.30 in 5.0 mi Calm Calm - N/A   Overcast
9:53 PM 28.9 °F - 28.0 °F 96% 30.30 in 4.0 mi Calm Calm - N/A   Overcast
10:23 PM 28.4 °F - 28.4 °F 100% 30.30 in 2.0 mi Calm Calm - N/A   Overcast
10:34 PM 28.4 °F - 28.4 °F 100% 30.30 in 4.0 mi Calm Calm - N/A   Overcast
10:53 PM 28.9 °F - 28.0 °F 96% 30.31 in 4.0 mi Calm Calm - N/A   Overcast
11:53 PM 28.9 °F - 28.0 °F 96% 30.31 in 4.0 mi Calm Calm - N/A   Overcast